FW0051 Weather Reports


Display with metric or nautical units.
time (UTC)temp
F
wind
direction
speed
MPH
gust
MPH
rain 1hr
in
rain 24hr
in
rain mn
in
humidity
%
barometer
mb
20260502163015 48 200 4.0 7.0 0.00 0.00 0.00 69 1025.0
20260502161515 48 174 6.0 11.0 0.00 0.00 0.00 71 1025.2
20260502151514 49 183 5.0 16.0 0.00 0.00 0.00 66 1025.3
20260502123020 48 165 6.0 14.0 0.00 0.00 0.00 65 1026.2
20260502121519 47 177 6.0 15.0 0.00 0.00 0.00 66 1026.3
20260502114518 47 169 8.0 12.0 0.00 0.00 0.00 65 1027.1
20260502113019 47 177 7.0 12.0 0.00 0.00 0.00 65 1026.6
20260502111518 47 191 4.0 10.0 0.00 0.00 0.00 68 1026.8
20260502110018 46 182 7.0 17.0 0.00 0.00 0.00 65 1026.7
20260502104518 47 182 2.0 9.0 0.00 0.00 0.00 67 1027.0
20260502103019 46 182 3.0 12.0 0.00 0.00 0.00 69 1027.3
20260502101518 45 185 3.0 10.0 0.00 0.00 0.00 67 1027.4
20260502091517 43 210 4.0 9.0 0.00 0.00 0.00 72 1027.6
20260502071517 40 191 6.0 11.0 0.00 0.00 0.00 70 1027.5
20260502070017 40 194 8.0 12.0 0.00 0.00 0.00 70 1027.6
20260502064516 40 192 6.0 10.0 0.00 0.00 0.00 70 1027.6
20260502063015 39 212 8.0 13.0 0.00 0.00 0.00 72 1027.7
20260502061516 39 217 10.0 13.0 0.00 0.00 0.00 73 1027.5
20260502060016 39 219 10.0 13.0 0.00 0.00 0.00 74 1027.5
20260502053015 38 203 5.0 7.0 0.00 0.00 0.00 75 1027.8
20260502051515 38 194 5.0 8.0 0.00 0.00 0.00 71 1027.8
20260502050016 38 195 4.0 7.0 0.00 0.00 0.00 71 1027.9
20260502044515 38 192 6.0 7.0 0.00 0.00 0.00 71 1027.6
20260502043015 38 188 5.0 7.0 0.00 0.00 0.00 71 1027.4
20260502041514 38 185 6.0 8.0 0.00 0.00 0.00 70 1027.4
20260502040016 38 178 8.0 10.0 0.00 0.00 0.00 69 1027.4
20260502034515 38 172 9.0 11.0 0.00 0.00 0.00 68 1027.4
20260502033015 38 178 8.0 11.0 0.00 0.00 0.00 68 1027.3
20260502030015 39 134 5.0 7.0 0.00 0.00 0.00 74 1027.4
20260502024514 40 137 2.0 4.0 0.00 0.00 0.00 74 1027.5
20260502023014 40 121 3.0 5.0 0.00 0.00 0.00 72 1027.8
20260502021514 40 125 4.0 7.0 0.00 0.00 0.00 70 1027.7
20260502020015 41 128 6.0 8.0 0.00 0.00 0.00 70 1027.9
20260502014513 41 131 5.0 8.0 0.00 0.00 0.00 70 1027.9
20260502013013 42 129 6.0 9.0 0.00 0.00 0.00 67 1027.9
20260502011512 42 126 6.0 9.0 0.00 0.00 0.00 65 1028.0
20260502010014 42 115 6.0 9.0 0.00 0.00 0.00 64 1028.1
20260502004513 42 114 6.0 10.0 0.00 0.00 0.00 64 1027.8
20260502003013 42 107 7.0 10.0 0.00 0.00 0.00 63 1027.8
20260502001518 42 102 8.0 9.0 0.00 0.00 0.00 64 1027.8
20260502000019 42 103 9.0 11.0 0.00 0.00 0.00 65 1027.8
20260501234518 42 103 9.0 11.0 0.00 0.00 0.00 66 1027.9
20260501233018 43 104 9.0 10.0 0.00 0.00 0.00 65 1027.8
20260501231518 43 110 8.0 9.0 0.00 0.00 0.00 66 1028.0
20260501230019 44 131 9.0 11.0 0.00 0.00 0.00 62 1027.8
20260501224517 44 141 6.0 9.0 0.00 0.00 0.00 64 1027.9
20260501223018 44 155 7.0 9.0 0.00 0.00 0.00 64 1028.0
20260501221517 44 157 7.0 8.0 0.00 0.00 0.00 65 1028.1
20260501214517 44 149 4.0 7.0 0.00 0.00 0.00 62 1027.9
20260501213018 45 153 6.0 8.0 0.00 0.00 0.00 61 1027.9
20260501211517 45 141 6.0 8.0 0.00 0.00 0.00 62 1027.9
20260501210017 45 131 7.0 9.0 0.00 0.00 0.00 61 1027.9
20260501204517 46 124 5.0 9.0 0.00 0.00 0.00 62 1027.6
20260501203017 46 119 2.0 5.0 0.00 0.00 0.00 62 1027.5
20260501201516 46 106 0.0 4.0 0.00 0.00 0.00 60 1027.3
20260501200017 45 0 0.0 0.0 0.00 0.00 0.00 66 1027.3
20260501194516 44 16 1.0 3.0 0.00 0.00 0.00 71 1027.2
20260501193017 44 307 0.0 3.0 0.00 0.00 0.00 72 1027.0
20260501191516 42 250 0.0 2.0 0.00 0.00 0.00 75 1026.9
20260501190017 40 239 2.0 4.0 0.00 0.00 0.00 70 1026.7
20260501184516 38 225 5.0 6.0 0.00 0.00 0.00 74 1026.6
20260501183016 42 232 5.0 6.0 0.00 0.00 0.00 74 1026.5
20260501181515 40 235 5.0 7.0 0.00 0.00 0.00 73 1026.5
20260501180017 39 213 3.0 7.0 0.00 0.00 0.00 74 1026.4
20260501174516 40 209 5.0 9.0 0.00 0.00 0.00 74 1026.5
20260501173015 40 205 4.0 8.0 0.00 0.00 0.00 73 1026.4
20260501171516 41 206 5.0 11.0 0.00 0.00 0.00 72 1026.6
20260501170016 41 203 5.0 7.0 0.00 0.00 0.00 72 1026.7